Regional Weather Roundup
Issued by NWS

Home | Current Version | Previous Version | Graphics & Text | Print | Product List | Glossary On
Versions: 1 2 3 4 5 6 7 8 9 10 11 12 13 14 15 16 17 18 19 20 21 22 23 24 25 26 27 28 29 30 31 32 33 34 35 36 37 38 39 40 41 42 43 44 45 46 47 48 49 50
000
ASUS43 KFSD 190802
RWRSD

WEATHER ROUNDUP FOR SOUTH DAKOTA
NATIONAL WEATHER SERVICE SIOUX FALLS SD
300 AM CDT THU OCT 19 2017

NOTE: "FAIR" INDICATES FEW OR NO CLOUDS BELOW 12,000 FEET WITH NO
SIGNIFICANT WEATHER AND/OR OBSTRUCTIONS TO VISIBILITY.


SDZ001>005-009-010-012>017-190900-
NORTHWEST AND NORTH CENTRAL SOUTH DAKOTA

CITY           SKY/WX    TMP DP  RH WIND       PRES   REMARKS
BUFFALO          N/A     44  26  49 SW3       29.80F
FAITH            N/A     42  30  62 S20       29.87F
MOBRIDGE       CLOUDY    49  35  58 SE13      29.88F
$$

SDZ012>016-024>037-041>051-057-063-072>074-190900-
SOUTHWEST AND SOUTH CENTRAL SOUTH DAKOTA

CITY           SKY/WX    TMP DP  RH WIND       PRES   REMARKS
RAPID CTY ARPT CLOUDY    52  29  41 S10       29.92F
PIERRE         CLOUDY    46  31  55 SE12      29.93F
CUSTER         CLOUDY    48  22  35 SW7       30.01F
ELLSWORTH AFB  CLOUDY    53  28  39 S12       29.89F
PHILIP         CLOUDY    51  34  52 S3        29.93F
PINE RIDGE     CLOUDY    56  33  42 S24G30    29.99S
SPEARFISH      FAIR      66  18  15 SW15      29.89S
WINNER         FAIR      56  35  45 S22G29    29.97F
$$

SDZ004>011-016>023-039-040-190900-
NORTHEAST SOUTH DAKOTA

CITY           SKY/WX    TMP DP  RH WIND       PRES   REMARKS
ABERDEEN       CLOUDY    35  29  78 S5        29.98F
WATERTOWN      CLOUDY    39  32  76 SE6       30.00F
BROOKINGS      CLOUDY    40  31  70 SE7       30.04S
SISSETON         N/A     52  28  39 SW13      29.96S
$$

SDZ017-020-022-023-036>040-048>070-190900-
SOUTHEAST SOUTH DAKOTA

CITY           SKY/WX    TMP DP  RH WIND       PRES   REMARKS
SIOUX FALLS    CLOUDY    40  35  83 CALM      30.05F
HURON          CLOUDY    39  33  79 SE5       30.00S
CHAMBERLAIN    CLOUDY    42  36  78 SE8       29.99F
MITCHELL       CLOUDY    47  32  56 S9        30.02F
YANKTON        CLOUDY    42  34  73 CALM      30.06S
$$

ABBREVIATIONS USED IN REMARKS
   TC - TEMPERATURE IN CELSIUS
  WCI - WIND CHILL INDEX
   HX - HEAT INDEX
  VSB - VISIBILITY




USA.gov is the U.S. government's official web portal to all federal, state and local government web resources and services.